Weather in Kachalino

Russia / Volgograd Oblast     49°07′18″N   44°03′38″E
temp.,
°C
wind,
m/s
gust,
m/s
humid.,
%
clouds,
%
prec.,
mm/h
press.,
hPa
HPBL,
m
20 september, mon
mon2000:00+17se81443100 0.0 1015747
03:00+15sse4953100 0.3 1016654
06:00+12se61279100 1.9 1014529
09:00+13se81470100 4.4 1014625
12:00+13se61279100 3.6 1014594
15:00+18ese596157 4.3 1012476
18:00+16sse238134 4.1 101255
21:00+15s239125 6.4 101342
21 september, tue
tue2100:00+16s348546 0.4 101371
03:00+15ssw338360 0.4 101339
06:00+16ssw3471100 0.0 101363
09:00+19ssw3560100 0.1 1013402
12:00+20wsw5655100 0.0 10121069
15:00+15ssw4783100 0.8 1013668
18:00+15ssw478442 0.1 1013414
21:00+13sw3589100 0.1 101397
22 september, wed
wed2200:00+13sw338162 0.0 101334
03:00+11wsw11785 0.0 101212
06:00+10wsw118076 0.0 101211
09:00+14sw2262100 0.0 1013355
12:00+16wsw3450100 0.0 10131241
15:00+17wsw4447100 0.0 10131820
18:00+15w3455100 0.0 1014178
21:00+14nw245789 0.0 1014175
23 september, thu
thu2300:00+11n22695 0.0 101519
03:00+10nnw117413 0.0 101510
06:00+9n11765 0.0 101510
09:00+14nne215566 0.0 1015486
12:00+17e1243100 0.0 10141454
15:00+19ese1240100 0.0 10131632
18:00+16e4663100 0.0 1014332
21:00+15n4671100 0.1 1012308
24 september, fri
fri2400:00+14nnw5671100 0.1 1011282
03:00+12n71083100 0.4 1011410
06:00+11ne5783100 0.8 1010298
09:00+11n3385100 1.1 1011290
12:00+15nnw4469100 0.0 1010763
15:00+15nw5564100 0.0 1011979
18:00+14nw6765100 0.0 1012832
21:00+12nw227333 0.0 101345